Portada
METAR-TAF:

METAR-TAF

Aeroports :

Sharurah, Aràbia Saudita

latitud: 17-28N, longitud: 047-07E, altitud: 720 m

Observació

L'informe es va fer fa 31 minuts, a les 18:00 UTC
Vent 8 kt del Est/Sud-Est
Temperatura 33°C
Humitat 21%
Pressió 1011 hPa
Visibilitat 10 km o més
Núvols disperses a una alçada de 4000 ft

METAR: OESH 031800Z 11008KT 9999 SCT040 33/08 Q1011 NOSIG

Hora: 21:31 (18:31 UTC)

Pronòstic

L'informe es va fer fa 7 hores i 31 minuts, a les 11:00 UTC
Pronòstic vàlid del 03 a les 12 UTC al 04 a les 18 UTC
Vent 12 kt del Est/Sud-Est
Visibilitat: 6000 m
Núvols disperses a una alçada de 4000 ft
Evolucionant progressivament
l' 03 a les 20 UTC al 03 a les 22 UTC
Vent 10 kt del Sud/Sud-Oest
Evolucionant progressivament
l' 04 a les 08 UTC al 04 a les 10 UTC
Vent 12 kt del Est/Sud-Est

TAF: OESH 031100Z 0312/0418 12012KT 6000 SCT040 BECMG 0320/0322 20010KT BECMG 0408/0410 11012KT

Observacions i pronòstics meteorològics de més de 4000 aeroports (METAR i TAF).

Les estacions disponibles són els punts grocs i vermells al mapa.

Posi el ratolí al punt desitjat per veure el nom de l'estació.

Feu clic per veure les observacions i els pronòstics meteorològics.

Per canviar el mapa: feu clic els botons verds amb una creu de color negre per apropar; al botó verd amb un guió per allunyar la imatge; o en les fletxes verdes per a mapes adjacents.


METAR-TAF: